Theta_e
312 311 310 310 307 307 306 306 305 305 305 306 305 307 306 307 308 307 306 307 307 308 308 309 309 310 311 311 312 313 314 313 313 313 312 311 311 311 313 313 312 313
305 305 304 305 306 306 306 305 305 304 304 304 305 304 306 306 305 304 304 304 304 305 306 306 307 307 307 308 307 308 310 311 311 312 311 310 309 310 311 311 311 311
303 304 304 303 304 303 303 303 303 304 303 303 304 304 304 303 302 302 303 302 302 303 303 304 304 304 305 305 305 305 305 305 306 308 308 308 309 309 310 310 310 309
301 302 302 302 302 302 302 302 301 301 301 301 300 301 301 302 300 300 300 299 300 300 300 301 300 301 300 301 302 301 302 301 301 302 302 304 306 306 306 306 306 307
299 299 299 299 299 300 299 299 298 298 298 298 298 298 299 298 298 297 297 297 297 296 297 297 297 297 298 298 297 300 298 297 298 298 297 298 300 302 303 304 304 303
298 298 298 298 297 297 297 297 297 296 295 295 297 297 296 296 294 294 294 294 294 295 295 295 296 296 296 296 297 297 297 298 297 295 295 297 298 299 301 301 301 300
296 297 297 297 296 296 296 295 295 295 295 294 293 294 292 292 292 292 292 292 293 294 293 294 294 295 294 293 293 293 294 293 293 293 293 295 295 296 295 296 297 297
296 295 296 295 295 294 294 293 292 292 291 290 291 291 291 291 291 291 291 292 292 292 292 292 291 294 292 292 293 292 292 295 295 292 292 293 291 293 294 295 295 295
294 293 293 292 292 292 291 291 290 290 290 290 291 291 292 292 291 292 291 291 290 291 291 290 292 291 292 291 292 291 291 292 293 291 291 292 292 292 293 293 293 293
293 292 291 291 290 289 289 289 289 290 290 291 291 290 292 291 290 290 289 290 289 290 289 289 290 290 290 289 291 290 291 292 292 291 291 291 291 292 292 292 291 291
291 290 290 290 290 290 290 290 290 290 290 289 289 289 289 288 289 287 288 288 291 289 290 289 289 289 290 290 291 289 289 290 290 290 291 291 291 291 291 291 291 291
290 290 290 290 289 289 289 288 289 287 286 287 287 287 286 286 286 287 287 287 286 288 287 289 289 288 288 289 290 290 289 289 289 290 290 290 291 291 291 291 291 291
289 289 289 288 288 288 288 287 287 286 286 287 286 286 286 285 285 285 285 286 287 286 288 289 289 289 289 290 290 288 287 287 288 288 288 289 289 290 290 290 290 290
288 288 287 288 287 287 287 286 286 285 285 284 285 284 285 285 285 286 286 285 287 287 289 289 288 288 288 288 288 288 287 286 286 287 287 287 288 288 289 289 290 290
287 288 288 287 287 286 286 285 285 284 284 284 284 284 287 285 285 286 286 286 286 286 286 287 288 289 290 290 289 288 287 287 286 286 286 286 287 287 287 288 288 289
287 287 287 287 286 285 285 284 284 284 284 284 285 284 284 284 284 284 284 284 285 285 285 287 288 289 289 291 292 290 288 287 286 286 285 285 285 286 286 287 287 288
285 286 285 285 285 284 283 283 284 284 283 283 283 283 283 283 283 283 283 283 284 284 284 286 287 288 290 292 293 293 290 287 286 285 285 285 285 285 285 286 287 287
285 284 284 284 283 283 282 282 282 281 281 281 282 281 282 281 282 281 282 282 283 282 282 284 284 287 290 291 292 292 291 288 286 286 285 285 285 285 285 286 286 287
284 283 283 283 282 282 282 281 280 280 279 280 281 281 281 281 281 281 281 282 282 282 282 283 283 287 289 290 291 291 291 290 286 285 285 285 285 285 285 285 286 286
283 283 282 282 282 281 281 280 279 280 279 279 280 279 280 280 279 280 281 281 282 282 282 282 282 286 289 290 290 290 291 290 286 285 285 284 284 284 285 285 285 285
282 282 281 281 280 279 279 279 279 279 279 280 279 279 280 281 281 281 281 281 281 281 281 282 283 287 289 289 289 290 290 290 285 285 284 284 284 284 284 284 285 285
281 281 280 280 279 278 278 278 278 278 279 279 279 279 278 278 279 277 280 280 281 281 281 281 282 287 288 288 289 289 290 286 284 283 283 283 284 284 284 284 285 285
280 279 279 278 277 277 276 277 277 277 278 278 278 278 279 279 279 279 280 280 281 281 280 281 281 284 287 288 288 289 289 284 283 283 283 283 283 284 284 284 284 285
279 278 276 276 275 275 275 275 276 276 276 278 277 278 277 278 279 280 280 279 280 280 280 280 281 283 286 287 288 288 288 284 283 283 283 283 283 284 284 284 284 285
278 277 275 274 274 274 274 274 274 276 276 276 276 275 277 277 279 279 279 279 277 279 281 281 281 282 285 287 287 288 287 284 283 283 282 283 283 283 284 284 284 284
275 275 274 273 272 272 273 274 274 275 275 275 276 276 277 277 277 278 277 278 279 278 279 280 280 281 283 286 287 288 288 286 284 283 282 282 283 283 283 283 284 284
Wind_Speed
3 3 3 4 2 2 2 2 3 3 2 3 4 4 5 4 5 6 4 5 5 5 5 5 5 6 6 4 3 4 4 4 5 4 5 5 5 5 6 5 5 5
4 4 3 3 5 5 5 4 4 3 3 4 4 5 5 5 4 4 4 4 4 4 5 5 5 5 5 5 5 5 4 4 5 4 5 6 6 6 7 7 6 6
5 5 6 5 5 4 4 4 4 5 5 5 5 5 4 4 4 4 4 4 4 4 4 4 4 5 5 5 5 5 5 5 5 5 5 5 6 6 7 8 7 7
6 6 5 5 4 5 5 6 6 6 5 6 5 4 4 4 4 4 4 5 4 5 4 4 4 4 4 4 5 6 5 5 4 5 5 5 5 6 7 7 7 8
6 6 5 5 5 6 6 6 6 6 5 5 4 4 6 5 5 5 6 6 5 5 4 4 4 4 4 4 4 5 5 5 4 4 5 5 5 5 6 6 7 8
6 5 5 6 5 6 6 6 5 5 4 5 5 5 5 5 5 5 5 5 5 5 5 5 5 5 5 5 6 5 5 5 6 4 5 5 6 5 5 5 7 8
7 6 7 6 7 6 6 5 5 5 5 4 5 5 4 4 5 4 4 4 5 5 5 5 5 5 5 4 4 4 5 4 4 5 5 5 5 6 5 5 6 7
7 5 6 6 6 5 6 5 5 5 4 4 4 3 4 4 5 4 5 5 5 5 5 5 5 5 5 4 5 5 6 4 5 5 5 6 5 6 6 5 6 6
6 6 6 6 7 6 5 4 4 3 3 4 5 5 5 5 5 5 5 5 5 5 5 5 5 5 5 5 5 5 5 6 5 5 5 6 6 7 7 6 6 7
7 6 7 6 5 4 5 4 4 5 5 6 6 6 7 6 5 5 5 5 5 5 5 5 5 5 5 5 5 5 5 6 6 6 6 6 7 7 7 7 7 8
6 5 5 6 6 6 6 6 6 6 6 5 6 5 5 4 4 4 4 4 6 5 5 5 5 5 5 6 6 5 5 5 6 6 6 7 7 7 7 7 8 8
5 5 6 6 6 5 5 5 5 4 4 4 3 4 4 4 4 4 4 4 4 5 5 5 5 5 5 5 6 5 5 5 5 6 7 7 8 8 8 7 8 9
5 6 6 5 4 3 3 3 3 3 3 3 3 3 3 3 4 3 4 4 4 4 5 5 5 5 6 6 6 5 4 5 7 7 7 8 7 8 8 8 9 9
5 4 4 3 3 3 3 3 3 3 3 4 3 3 3 4 4 4 4 4 5 5 5 5 5 6 6 5 5 5 5 5 5 7 8 8 8 9 9 9 10 10
4 2 2 2 2 2 2 2 3 3 3 4 3 4 4 4 4 4 5 6 5 5 5 5 5 6 5 5 6 7 5 6 7 7 8 9 10 10 9 9 10 9
3 2 2 2 2 2 1 2 2 3 4 4 4 4 4 4 4 4 4 5 5 6 5 5 6 5 7 12 10 8 7 6 6 7 7 8 10 11 11 9 9 9
3 2 2 2 2 1 2 2 4 4 4 4 4 4 4 4 4 4 4 4 5 5 5 5 6 6 11 13 13 14 9 7 8 9 8 8 9 10 12 13 11 9
2 2 2 2 2 1 3 3 3 4 4 4 4 4 4 4 4 4 5 5 5 4 4 6 6 9 13 13 14 14 13 9 8 8 9 9 9 10 11 12 12 12
2 2 1 1 1 1 3 3 3 4 4 4 5 4 4 4 4 4 5 5 4 5 5 5 6 9 12 14 14 14 15 13 8 8 9 10 10 11 11 12 11 12
1 1 0 0 1 2 3 3 4 4 4 4 4 4 4 4 4 5 5 5 5 6 7 6 6 9 13 14 14 15 16 13 8 9 9 10 11 11 11 12 11 11
0 0 1 1 2 3 3 4 3 4 4 4 3 4 4 5 6 6 6 5 6 6 6 7 6 10 13 15 14 15 16 14 8 8 9 10 11 11 11 11 12 12
0 1 1 2 3 3 3 4 4 4 4 4 3 3 3 3 4 3 6 7 6 6 8 10 8 9 12 15 16 14 15 10 8 8 10 11 12 12 11 10 10 11
1 2 2 3 3 4 4 4 4 5 4 3 4 4 5 6 6 5 5 7 8 7 7 9 11 9 9 14 15 15 10 8 9 9 9 11 12 13 11 10 10 10
2 3 3 4 3 3 4 4 4 3 3 3 5 7 7 7 7 7 6 5 7 9 7 8 12 14 13 11 14 16 13 9 9 9 11 12 12 12 11 10 12 18
3 3 3 3 2 3 3 3 4 4 4 4 4 4 5 5 6 7 8 7 5 8 11 10 11 14 14 10 14 16 13 8 9 9 11 12 12 13 12 12 12 12
2 2 2 1 2 3 3 3 3 4 5 6 5 4 6 6 5 7 9 10 7 6 8 8 10 12 13 13 15 17 18 11 9 10 11 13 13 13 14 13 13 13
Wind_Direction
136 147 135 184 190 139 108 71 40 55 33 29 36 16 20 13 21 16 5 1 353 351 347 344 339 337 328 317 310 307 309 308 313 314 308 302 302 301 291 288 287 281
71 68 60 67 65 44 45 56 47 53 41 41 34 26 20 25 7 13 359 356 356 344 341 338 337 338 339 342 338 333 319 316 305 305 305 313 313 318 312 312 308 301
71 66 62 65 67 55 45 44 45 41 42 35 38 33 11 21 12 4 5 4 355 346 344 342 345 343 344 343 341 337 329 328 327 330 331 320 321 315 310 310 308 308
69 70 73 65 60 58 49 49 37 35 32 34 32 17 30 17 15 9 4 4 1 351 345 348 342 338 341 340 342 338 331 329 325 337 330 326 323 323 318 322 315 312
80 72 67 64 56 61 58 58 43 35 34 30 20 18 26 18 13 15 10 4 4 350 345 341 343 342 342 343 344 335 329 326 325 341 334 320 318 322 313 317 312 308
59 65 67 68 65 68 63 57 47 42 27 18 16 27 22 20 21 16 7 2 353 352 347 349 349 344 348 346 347 337 330 333 324 345 333 316 308 306 305 305 303 299
55 48 50 52 56 56 65 60 56 44 28 14 24 23 19 20 22 7 4 359 354 353 352 345 347 340 342 345 342 329 324 321 319 322 313 301 301 300 298 293 289 287
57 52 54 51 51 45 50 51 53 50 31 27 39 3 29 23 15 6 5 359 356 348 346 341 335 334 328 338 332 326 318 315 312 309 304 295 298 296 296 290 287 287
66 57 58 59 53 37 39 36 44 53 44 54 32 20 15 20 6 8 358 354 349 341 341 339 337 332 332 339 330 323 315 313 308 306 300 297 298 289 290 291 291 285
63 59 59 61 65 49 44 24 20 28 28 39 28 20 15 360 5 359 1 350 347 339 338 337 336 332 329 330 319 317 315 309 309 306 298 292 287 289 289 290 285 291
64 63 68 59 54 41 34 23 16 14 16 30 27 12 355 3 348 355 357 352 342 332 326 329 322 322 325 321 315 308 303 302 305 305 301 296 290 287 288 286 287 279
64 58 53 50 42 35 25 17 9 1 3 4 30 356 340 344 343 334 339 328 325 315 314 310 313 315 313 308 306 308 312 316 314 308 301 295 292 287 283 280 278 280
58 54 52 42 37 26 19 7 345 334 355 351 336 344 331 330 321 327 314 322 310 314 312 309 311 312 311 308 304 304 316 319 311 302 295 294 287 285 282 279 274 273
59 54 55 47 32 32 25 357 333 335 338 335 353 348 338 334 330 328 318 326 314 313 307 311 309 307 304 299 296 298 308 302 297 297 296 291 288 283 281 278 274 271
77 49 50 59 45 41 13 334 317 327 337 342 348 342 338 333 328 329 327 323 316 311 308 307 306 299 297 300 301 300 293 292 291 287 286 290 289 285 278 275 275 269
83 54 51 62 53 36 334 316 322 339 346 350 350 342 331 325 326 321 317 305 310 311 311 307 299 291 288 288 290 291 294 287 287 285 286 289 293 294 291 279 271 273
74 46 55 67 59 25 326 333 340 342 343 343 346 333 322 316 319 317 310 304 301 298 298 293 289 290 292 296 298 300 300 297 295 294 289 286 286 289 292 294 289 277
70 52 47 36 34 331 323 332 340 346 343 341 337 330 317 321 320 300 297 296 290 285 286 288 288 286 293 298 301 302 303 298 294 292 293 290 288 286 287 290 291 292
75 61 48 26 320 323 327 350 346 347 347 345 328 304 310 318 300 300 294 292 293 298 296 291 289 290 294 297 299 300 301 299 289 285 288 289 288 285 285 286 289 291
73 100 85 301 342 343 357 352 352 339 326 308 297 303 301 295 292 293 298 306 306 303 298 295 289 291 295 300 303 303 302 301 287 288 286 285 285 285 284 286 287 289
133 168 53 4 358 357 358 348 331 324 319 304 291 295 306 312 320 326 320 314 309 304 300 296 288 290 300 302 303 301 299 304 292 288 287 287 285 283 282 282 286 285
151 76 33 24 1 359 354 342 336 323 314 300 297 293 289 304 308 305 308 310 303 305 308 303 298 295 300 303 304 300 301 302 297 291 289 289 289 287 283 280 279 279
66 55 16 20 8 1 344 337 330 318 304 291 313 332 340 337 326 313 305 307 308 307 303 299 301 293 291 299 301 303 305 300 298 296 290 290 289 291 291 288 284 281
49 43 32 16 1 340 319 307 294 278 293 333 353 339 335 327 315 314 309 302 302 301 297 298 299 301 301 297 306 308 310 304 298 297 294 293 294 292 293 290 285 284
43 45 32 12 332 303 300 299 306 317 322 338 340 324 308 305 312 313 310 305 288 289 298 298 296 299 302 302 310 312 313 305 301 296 296 296 298 297 296 294 290 285
34 46 357 344 296 295 289 297 304 331 342 342 334 328 318 320 315 311 308 305 305 290 293 291 296 299 302 304 314 314 315 311 303 301 298 299 297 295 297 295 293 294